TimeCST,TemperatureF,Dew PointF,Humidity,Sea Level PressureIn,VisibilityMPH,Wind Direction,Wind SpeedMPH,Gust SpeedMPH,PrecipitationIn,Events,Conditions,WindDirDegrees,DateUTC
12:15 AM,19.4,15.8,86,29.98,7.0,SW,8.1,-,N/A,,Overcast,220,2013-01-02 06:15:00
12:35 AM,19.4,15.8,86,29.97,7.0,SSW,3.5,-,N/A,,Mostly Cloudy,210,2013-01-02 06:35:00
12:55 AM,17.6,14.0,86,29.96,7.0,SSW,6.9,-,N/A,,Clear,210,2013-01-02 06:55:00
1:15 AM,17.6,14.0,86,29.95,5.0,Calm,Calm,-,N/A,,Clear,0,2013-01-02 07:15:00
1:35 AM,15.8,12.2,86,29.95,5.0,Calm,Calm,-,N/A,,Clear,0,2013-01-02 07:35:00
1:55 AM,15.8,12.2,86,29.95,5.0,Calm,Calm,-,N/A,,Clear,0,2013-01-02 07:55:00
2:15 AM,14.0,12.2,93,29.94,5.0,South,3.5,-,N/A,,Clear,190,2013-01-02 08:15:00
2:35 AM,12.2,10.4,92,29.94,5.0,Calm,Calm,-,N/A,,Clear,0,2013-01-02 08:35:00
2:55 AM,12.2,8.6,85,29.94,4.0,SSE,3.5,-,N/A,,Clear,160,2013-01-02 08:55:00
3:15 AM,12.2,8.6,85,29.94,5.0,Calm,Calm,-,N/A,,Clear,0,2013-01-02 09:15:00
3:35 AM,12.2,8.6,85,29.93,5.0,Calm,Calm,-,N/A,,Clear,0,2013-01-02 09:35:00
3:55 AM,10.4,8.6,92,29.93,5.0,Calm,Calm,-,N/A,,Clear,0,2013-01-02 09:55:00
4:15 AM,10.4,6.8,85,29.92,5.0,Calm,Calm,-,N/A,,Clear,0,2013-01-02 10:15:00
4:34 AM,10.4,6.8,85,29.92,5.0,South,4.6,-,N/A,,Clear,180,2013-01-02 10:34:00
4:55 AM,8.6,5.0,85,29.91,5.0,South,3.5,-,N/A,,Clear,170,2013-01-02 10:55:00
5:15 AM,6.8,1.4,79,29.91,4.0,Calm,Calm,-,N/A,,Clear,0,2013-01-02 11:15:00
5:36 AM,6.8,1.4,79,29.91,4.0,Calm,Calm,-,N/A,,Clear,0,2013-01-02 11:36:00
6:15 AM,6.8,3.2,85,29.90,5.0,South,3.5,-,N/A,,Mostly Cloudy,180,2013-01-02 12:15:00
6:35 AM,8.6,3.2,79,29.90,5.0,South,3.5,-,N/A,,Overcast,170,2013-01-02 12:35:00
6:55 AM,8.6,5.0,85,29.91,5.0,Calm,Calm,-,N/A,,Overcast,0,2013-01-02 12:55:00
7:15 AM,10.4,6.8,85,29.91,7.0,Calm,Calm,-,N/A,,Overcast,0,2013-01-02 13:15:00
7:35 AM,10.4,6.8,85,29.90,5.0,Calm,Calm,-,N/A,Snow,Light Snow,0,2013-01-02 13:35:00
7:55 AM,10.4,8.6,92,29.91,2.5,South,3.5,-,N/A,Snow,Light Snow,170,2013-01-02 13:55:00
8:15 AM,12.2,8.6,85,29.91,2.5,Calm,Calm,-,N/A,Snow,Light Snow,0,2013-01-02 14:15:00
8:35 AM,12.2,8.6,85,29.92,2.0,Calm,Calm,-,N/A,Snow,Light Snow,0,2013-01-02 14:35:00
8:55 AM,12.2,8.6,85,29.92,1.2,Calm,Calm,-,N/A,Snow,Light Snow,0,2013-01-02 14:55:00
9:15 AM,12.2,8.6,85,29.93,1.2,Calm,Calm,-,N/A,Snow,Light Snow,0,2013-01-02 15:15:00
9:35 AM,12.2,10.4,92,29.93,1.0,Calm,Calm,-,N/A,Snow,Light Snow,0,2013-01-02 15:35:00
9:55 AM,12.2,10.4,92,29.94,1.8,SSE,4.6,-,N/A,Snow,Light Snow,160,2013-01-02 15:55:00
10:15 AM,14.0,10.4,86,29.93,2.0,SSE,3.5,-,N/A,Snow,Light Snow,160,2013-01-02 16:15:00
10:35 AM,14.0,10.4,86,29.93,2.5,SSE,4.6,-,N/A,Snow,Light Snow,160,2013-01-02 16:35:00
10:55 AM,14.0,10.4,86,29.93,4.0,SSE,4.6,-,N/A,Snow,Light Snow,160,2013-01-02 16:55:00
11:15 AM,15.8,12.2,86,29.93,2.5,Calm,Calm,-,N/A,Snow,Light Snow,0,2013-01-02 17:15:00
11:35 AM,15.8,12.2,86,29.92,2.5,Calm,Calm,-,N/A,,Overcast,0,2013-01-02 17:35:00
11:55 AM,15.8,14.0,93,29.92,2.0,Calm,Calm,-,N/A,,Overcast,0,2013-01-02 17:55:00
12:15 PM,17.6,15.8,93,29.91,2.0,Calm,Calm,-,N/A,,Overcast,0,2013-01-02 18:15:00
12:35 PM,17.6,15.8,93,29.92,2.0,Calm,Calm,-,N/A,,Overcast,0,2013-01-02 18:35:00
12:55 PM,17.6,15.8,93,29.92,2.0,Calm,Calm,-,N/A,,Overcast,0,2013-01-02 18:55:00
1:15 PM,19.4,17.6,93,29.92,2.0,Calm,Calm,-,N/A,,Overcast,0,2013-01-02 19:15:00
1:35 PM,21.2,17.6,86,29.92,3.0,Calm,Calm,-,N/A,,Overcast,0,2013-01-02 19:35:00
1:55 PM,21.2,19.4,93,29.93,4.0,Calm,Calm,-,N/A,,Overcast,0,2013-01-02 19:55:00
2:15 PM,23.0,21.2,93,29.94,5.0,NW,4.6,-,N/A,,Overcast,310,2013-01-02 20:15:00
2:35 PM,23.0,21.2,93,29.94,10.0,NW,5.8,-,N/A,,Overcast,320,2013-01-02 20:35:00
2:56 PM,24.8,21.2,86,29.95,7.0,WNW,5.8,-,N/A,,Overcast,300,2013-01-02 20:56:00
3:15 PM,24.8,19.4,80,29.95,7.0,West,8.1,-,N/A,,Overcast,280,2013-01-02 21:15:00
3:35 PM,24.8,21.2,86,29.96,7.0,WNW,8.1,-,N/A,,Overcast,300,2013-01-02 21:35:00
3:56 PM,24.8,21.2,86,29.97,10.0,NW,8.1,-,N/A,,Overcast,310,2013-01-02 21:56:00
4:15 PM,24.8,21.2,86,29.98,7.0,NW,10.4,-,N/A,,Overcast,320,2013-01-02 22:15:00
4:35 PM,24.8,21.2,86,29.98,10.0,NW,16.1,20.7,N/A,,Overcast,310,2013-01-02 22:35:00
4:56 PM,24.8,19.4,80,29.99,10.0,NW,17.3,-,N/A,,Overcast,310,2013-01-02 22:56:00
5:15 PM,23.0,19.4,86,30.01,7.0,NW,16.1,23.0,N/A,,Overcast,320,2013-01-02 23:15:00
5:35 PM,19.4,15.8,86,30.01,10.0,NW,11.5,-,N/A,,Scattered Clouds,320,2013-01-02 23:35:00
5:56 PM,21.2,17.6,86,30.01,10.0,WNW,10.4,-,N/A,,Mostly Cloudy,300,2013-01-02 23:56:00
6:15 PM,21.2,17.6,86,30.02,10.0,NW,16.1,-,N/A,,Overcast,320,2013-01-03 00:15:00
6:35 PM,21.2,15.8,80,30.03,10.0,NW,15.0,-,N/A,,Overcast,310,2013-01-03 00:35:00
6:55 PM,19.4,14.0,80,30.04,10.0,NW,13.8,-,N/A,,Mostly Cloudy,310,2013-01-03 00:55:00
7:15 PM,19.4,12.2,74,30.05,10.0,NW,15.0,-,N/A,,Scattered Clouds,310,2013-01-03 01:15:00
7:35 PM,17.6,12.2,79,30.06,10.0,NW,16.1,-,N/A,,Clear,310,2013-01-03 01:35:00
7:55 PM,15.8,10.4,79,30.06,10.0,NW,16.1,-,N/A,,Clear,310,2013-01-03 01:55:00
8:15 PM,15.8,10.4,79,30.07,10.0,NW,12.7,-,N/A,,Clear,310,2013-01-03 02:15:00
8:35 PM,14.0,8.6,79,30.08,10.0,NW,20.7,-,N/A,,Clear,310,2013-01-03 02:35:00
8:55 PM,12.2,6.8,79,30.09,7.0,NW,19.6,-,N/A,,Clear,310,2013-01-03 02:55:00
9:15 PM,12.2,5.0,73,30.10,7.0,NW,17.3,-,N/A,,Clear,310,2013-01-03 03:15:00
9:35 PM,10.4,5.0,79,30.10,10.0,NW,16.1,-,N/A,,Clear,310,2013-01-03 03:35:00
9:55 PM,10.4,5.0,79,30.11,10.0,NW,17.3,-,N/A,,Clear,310,2013-01-03 03:55:00
10:15 PM,10.4,3.2,73,30.12,10.0,NW,13.8,-,N/A,,Clear,310,2013-01-03 04:15:00
10:35 PM,8.6,3.2,79,30.12,10.0,NW,17.3,-,N/A,,Clear,310,2013-01-03 04:35:00
10:55 PM,8.6,3.2,79,30.13,10.0,WNW,15.0,-,N/A,,Scattered Clouds,300,2013-01-03 04:55:00
11:15 PM,8.6,3.2,79,30.13,10.0,WNW,17.3,23.0,N/A,,Overcast,300,2013-01-03 05:15:00
11:35 PM,8.6,3.2,79,30.13,10.0,WNW,17.3,21.9,N/A,,Overcast,300,2013-01-03 05:35:00
11:55 PM,8.6,3.2,79,30.14,7.0,NW,18.4,24.2,N/A,,Overcast,310,2013-01-03 05:55:00